Terug naar catalogus

SL-8 DEB *

ActiefLEO
NORAD 3931·DEBRIS·🇷🇺 Russia

Gelanceerd Mar 15, 1965 vanaf Baikonur Cosmodrome

Loading…

Volgende Passages (komende 24 uur)

TLE

VersSource: Space-Track

Epoch: Sep 14, 2026, 15:41 UTC

1 03931U 65020EV  26257.65349666 -.00000034  00000-0  42695-3 0  9993
2 03931  56.0658 347.1902 0190752 201.4108 309.5995 12.35218781788218

Volg SL-8 DEB * in realtime met AllMySat

Download on the App Store